This is the latest recevied weather packets stored in our database for station/object KC5TIL-3. If no packets are shown the sender has not sent any weather packets the latest 10 day(s).
| Time | Temp. | Humidity | Pressure | Rain* | Wind** | Luminosity | Snow |
|---|---|---|---|---|---|---|---|
| 1787705116 | 35.56° C | 11% | 1010.8 hPa | 0 mm | 2.24 m/s, 125° | - | - |
| 1787704814 | 35.56° C | 11% | 1010.8 hPa | 0 mm | 2.68 m/s, 140° | - | - |
| 1787704516 | 36.11° C | 11% | 1010.8 hPa | 0 mm | 2.24 m/s, 157° | - | - |
| 1787704218 | 36.11° C | 11% | 1010.8 hPa | 0 mm | 2.68 m/s, 168° | - | - |
| 1787703917 | 36.11° C | 11% | 1010.8 hPa | 0 mm | 1.34 m/s, 122° | - | - |
| 1787703619 | 36.11° C | 10% | 1010.8 hPa | 0 mm | 1.79 m/s, 141° | - | - |
| 1787703320 | 36.67° C | 10% | 1010.8 hPa | 0 mm | 2.24 m/s, 193° | - | - |
| 1787703019 | 36.67° C | 10% | 1010.8 hPa | 0 mm | 2.68 m/s, 135° | - | - |
| 1787702721 | 36.67° C | 10% | 1010.8 hPa | 0 mm | 1.34 m/s, 216° | - | - |
| 1787702423 | 36.67° C | 10% | 1010.8 hPa | 0 mm | 2.68 m/s, 128° | - | - |
| 1787702121 | 37.22° C | 10% | 1010.8 hPa | 0 mm | 3.13 m/s, 187° | - | - |
| 1787701823 | 37.22° C | 10% | 1010.8 hPa | 0 mm | 1.79 m/s, 163° | - | - |
| 1787701525 | 37.22° C | 10% | 1010.8 hPa | 0 mm | 2.24 m/s, 121° | - | - |
| 1787701223 | 37.22° C | 10% | 1010.8 hPa | 0 mm | 1.79 m/s, 129° | - | - |
| 1787700925 | 37.22° C | 10% | 1010.8 hPa | 0 mm | 1.79 m/s, 167° | - | - |
| 1787700627 | 37.22° C | 10% | 1010.8 hPa | 0 mm | 3.13 m/s, 195° | - | - |
| 1787700326 | 37.22° C | 10% | 1010.8 hPa | 0 mm | 1.79 m/s, 194° | - | - |
| 1787700027 | 37.22° C | 10% | 1010.8 hPa | 0 mm | 1.79 m/s, 177° | - | - |
| 1787699729 | 37.22° C | 10% | 1009.8 hPa | 0 mm | 3.58 m/s, 144° | - | - |
| 1787699428 | 37.22° C | 10% | 1009.8 hPa | 0 mm | 2.68 m/s, 157° | - | - |
| 1787699130 | 37.22° C | 10% | 1009.8 hPa | 0 mm | 3.13 m/s, 149° | - | - |
| 1787698832 | 37.22° C | 10% | 1009.8 hPa | 0 mm | 2.68 m/s, 151° | - | - |
| 1787698526 | 37.22° C | 10% | 1009.8 hPa | 0 mm | 2.68 m/s, 215° | - | - |
| 1787698228 | 37.22° C | 10% | 1009.8 hPa | 0 mm | 3.58 m/s, 204° | - | - |
| 1787697929 | 37.22° C | 10% | 1009.8 hPa | 0 mm | 3.13 m/s, 147° | - | - |
* Rain latest hour (hover to see other rain measurements)
** Current wind speed in m/s (hover to see current wind gust speed)